Location: Carrières
(48.9495°N, 2.0407°E)
Time: 02:16:27
(UTC+00:00)

ISS - Visible Passes

Search period start: 05 March 2024 00:00
Search period end: 15 March 2024 00:00
Orbit: 414 x 422 km, 51.6° (Epoch: 04 March)

Date Brightness Start Highest point End Pass type
(mag) Time Alt. Az. Time Alt. Az. Time Alt. Az.
05 Mar -3.5 04:23:46 59° SSE 04:23:46 59° SSE 04:26:41 10° ESE visible
06 Mar -1.0 03:37:55 16° ESE 03:37:55 16° ESE 03:38:39 10° ESE visible
06 Mar -2.4 05:10:52 21° WSW 05:11:46 23° SW 05:14:32 10° SSE visible
07 Mar -2.2 04:25:08 25° S 04:25:08 25° S 04:26:55 10° SSE visible
08 Mar -1.4 05:12:29 10° SW 05:12:29 10° SW 05:12:36 10° SW visible
13 Mar -1.7 19:30:31 10° S 19:31:38 16° S 19:31:38 16° S visible
14 Mar -1.7 18:43:16 10° SSE 18:44:58 13° SE 18:46:05 12° ESE visible
14 Mar -1.6 20:17:53 10° SW 20:19:02 20° SW 20:19:02 20° SW visible
